Regional Weather Roundup
Issued by NWS Sterling, VA

Home | Current Version | Previous Version | Graphics & Text | Print | Product List | Glossary On
Versions: 1 2 3 4 5 6 7 8 9 10 11 12 13 14 15 16 17 18 19 20 21 22 23 24 25 26 27
000
ASUS41 KLWX 200210
RWRLWX

REGIONAL WEATHER ROUNDUP
NATIONAL WEATHER SERVICE BALTIMORE MD/WASHINGTON DC
900 PM EST SUN FEB 19 2017

Note: "FAIR" indicates few or no clouds below 12,000 feet
with no significant weather and/or obstructions to visibility.
 TC=TEMPERATURE CELSIUS

 * =Non NWS site. Station does not report precipitation (e.g. rain,
    snow, etc.), thunder, or fog.

DCZ001-MDZ009-015-VAZ040>042-051-053>054-200300-
WASHINGTON METRO

CITY           SKY/WX    TMP DP  RH WIND       PRES   REMARKS
WASHINGTON NAT PTCLDY    61  41  47 NW9       30.02R
DULLES         CLEAR     57  40  52 NW13      30.04R
ANDREWS AFB    CLEAR     59  40  49 W9        30.00R
FT BELVOIR     CLEAR     59  39  46 NW9       30.02R
QUANTICO       CLEAR     61  38  42 N6        30.04R
COLLEGE PARK*  CLEAR     59  39  47 W7        30.01R
LEESBURG*      CLEAR     57  45  62 NW5       30.05R
MANASSAS*      CLEAR     59  39  47 NW12      30.04
GAITHERSBURG*  CLEAR     54  37  54 W10       30.06R

$$

MDZ006>007-011-014-200300-
BALTIMORE METRO

CITY           SKY/WX    TMP DP  RH WIND       PRES   REMARKS
BWI AIRPORT    PTCLDY    54  41  61 W8        29.99R
MD SCIENCE CTR   N/A     61  39  44 MISG      29.99R
MARTIN STATE   CLEAR     61  45  55 W6        29.99R
ANNAPOLIS      PTCLDY    60  41  49 W5        29.99R
FORT MEADE*    CLEAR     54  39  58 W5        30.03R

$$

MDZ012-015-019>023-200300-
MARYLAND EASTERN SHORE

CITY           SKY/WX    TMP DP  RH WIND       PRES   REMARKS
OCEAN CITY     CLEAR     56  43  61 W3        29.97R
SALISBURY      CLEAR     57  44  62 NW6       29.97R
BAY BRIDGE AP* CLEAR     54  41  62 W9        29.99R
CAMBRIDGE*     PTCLDY    55  39  54 NW5       29.99R
EASTON*        CLEAR     59  39  47 NW7       30.03R

$$

MDZ017>025-200300-
SOUTHERN MARYLAND

CITY           SKY/WX    TMP DP  RH WIND       PRES   REMARKS
PATUXENT RIVER PTCLDY    56  42  59 NW9       30.00R
ST INIGOES     CLEAR     49  43  80 CALM      29.99R
LEONARDTOWN*   PTCLDY    61  36  39 NW7       30.02R

$$

MDZ003>005-200300-
NORTH CENTRAL MARYLAND

CITY           SKY/WX    TMP DP  RH WIND       PRES   REMARKS
FREDERICK*     NOT AVBL
HAGERSTOWN APT CLEAR     55  41  59 S3        30.04R
WESTMINSTER*   CLEAR     57  43  58 NW9       30.01R

$$

MDZ501>502-200300-
WESTERN MARYLAND

CITY           SKY/WX    TMP DP  RH WIND       PRES   REMARKS
OAKLAND*       MOCLDY    41  41 100 W12G21    30.11R FOG
CUMBERLAND*    CLEAR     54  43  66 W7        30.13R

$$

VAZ025>031-200300-
SHENANDOAH VALLEY

CITY           SKY/WX    TMP DP  RH WIND       PRES   REMARKS
WINCHESTER*    CLEAR     54  39  58 W6        30.05R
FRONT ROYAL*   CLEAR     54  37  54 CALM      30.05R
LURAY*         CLEAR     46  39  76 CALM      30.07R
NEW MARKET*    CLEAR     43  35  71 CALM      30.07R
STAUNTON*      CLEAR     44  34  67 CALM      30.10R
WAYNESBORO*    PTCLDY    53  38  58 W7        30.07S

$$

WVZ021-048>050-054>055-200300-
EASTERN WEST VIRGINIA PANHANDLE

CITY           SKY/WX    TMP DP  RH WIND       PRES   REMARKS
MARTINSBURG    CLEAR     56  41  57 W12       30.05R
PETERSBURG*    CLEAR     45  39  79 CALM      30.12R

$$

VAZ036>039-050-200300-
CENTRAL FOOTHILLS

CITY           SKY/WX    TMP DP  RH WIND       PRES   REMARKS
CHARLOTTESVILL CLEAR     62  36  37 NW6       30.04R
CULPEPER*      PTCLDY    58  36  45 NW3       30.04R
ORANGE*        CLEAR     46  36  66 CALM      30.05R
GORDONSVILLE*  PTCLDY    51  37  58 CALM      30.03R
WARRENTON*     PTCLDY    53  32  45 CALM      30.03R

$$

VAZ055>057-200300-
NORTH AND CENTRAL PIEDMONT

CITY           SKY/WX    TMP DP  RH WIND       PRES   REMARKS
FREDERICKSBRG* PTCLDY    56  39  51 NW3       30.02R
STAFFORD*      CLEAR     54  37  52 NW8       30.07R

$$

NCZ024-NYZ072-PAZ021-071-VAZ022-071-200300-
OTHER REGIONAL OBSERVATIONS

CITY           SKY/WX    TMP DP  RH WIND       PRES   REMARKS
NEW YORK CITY  CLEAR     58  30  34 N6        29.96R
PHILADELPHIA   CLEAR     58  35  42 W7        29.96R
PITTSBURGH     CLEAR     50  32  50 NW5       30.10R
ROANOKE        CLEAR     52  40  63 NW8       30.13R
RICHMOND       CLEAR     58  44  60 N7        30.01R
RALEIGH        CLEAR     57  43  59 CALM      30.05R

$$

ANZ530>537-200300-
MARINE OBSERVATIONS

STATION/POSITION TIME  TEMP    WIND        PRES
                       AIR SEA DIR/SP/G
                 (UTC) (F)     (DEG/KT/KT) (MB)
THOMAS PT LIGHT  0200   61 41  290/ 12/ 13   N/A
BALT KEY BRIDGE  0148   60     250/  7/  8 1015.4R
COVE POINT       0148   61     330/ 13/ 16 1016.3R
LEWISETTA        0148   52 45  240/  2/  2 1015.4R
SOLOMONS ISLAND  0148   59 43  320/  6/  7   N/A
PINEY POINT      0142          340/  6/  7   N/A

$$





USA.gov is the U.S. government's official web portal to all federal, state and local government web resources and services.